Home   Weather   Inverness   Past weeks

Flag for USA Past Weather in Inverness, Florida, USA — Yesterday and Last 2 Weeks

Now
70 °F

Mild.


Feels Like: 70 °F
Forecast: 67 / 95 °F
Wind: No wind

Location: The Villages

Current Time: Apr 28, 2017 at 6:09:32 am

Latest Report: Apr 28, 2017 at 5:30 am


Visibility: 10 mi

Pressure: 29.91 "Hg

Humidity: 94%

Dew Point: 68 °F

Location of InvernessLocation

Past Weather in Inverness — Graph

°F

Inverness Temperature Yesterday

Maximum temperature yesterday: 93 °F (at 3:10 pm)
Minimum temperature yesterday: 63 °F (at 3:10 am)
Average temperature yesterday: 78 °F

High & Low Weather Summary for the Past Weeks

 TemperatureHumidityPressure
High93 °F (Apr 27, 3:10 pm)100% (Apr 13, 6:50 am)30.19 "Hg (Apr 13, 6:50 am)
Low54 °F (Apr 25, 4:50 am)31% (Apr 18, 4:50 pm)29.61 "Hg (Apr 24, 4:50 pm)
Average74 °F67%29.93 "Hg
* Reported Apr 13 4:10 am — Apr 28 4:50 am, Inverness, Weather by CustomWeather, © 2017

Note: Actual official high and low records may vary slightly from our data, if they occured in-between our weather recording intervals... More about our weather records

Advertising

Inverness Weather History for the Previous 24 Hours

Scroll right to see more
 ConditionsComfort  
Time TempWeatherWind HumidityBarometerVisibility
4:50 am
Fri, Apr 28
70 °FMild.No wind94%29.89 "Hg10 mi
4:30 am70 °FMild.No wind94%29.89 "Hg10 mi
3:30 am70 °FMild.No wind94%29.88 "Hg10 mi
3:10 am70 °FMild.No wind94%29.88 "Hg10 mi
2:50 am72 °FMild.No wind88%29.88 "Hg10 mi
2:10 am73 °FMild.No wind83%29.88 "Hg10 mi
1:50 am73 °FMild.No wind83%29.88 "Hg10 mi
1:30 am73 °FMild.No wind83%29.89 "Hg10 mi
1:10 am73 °FMild.No wind83%29.88 "Hg10 mi
12:50 am73 °FMild.No wind83%29.88 "Hg10 mi
12:30 am75 °FMild.No wind78%29.88 "Hg10 mi
12:10 am75 °FMild.No wind78%29.88 "Hg10 mi
11:50 pm
Thu, Apr 27
75 °FMild.No wind78%29.88 "Hg10 mi
11:30 pm75 °FMild.No wind74%29.88 "Hg10 mi
11:10 pm75 °FMild.No wind74%29.88 "Hg10 mi
10:50 pm75 °FMild.No wind74%29.87 "Hg10 mi
10:30 pm77 °FWarm.No wind69%29.86 "Hg10 mi
10:10 pm79 °FWarm.No wind65%29.85 "Hg10 mi
9:30 pm79 °FWarm.No wind65%29.84 "Hg10 mi
9:10 pm81 °FWarm.No wind62%29.84 "Hg10 mi
8:50 pm82 °FWarm.No wind58%29.83 "Hg10 mi
8:10 pm84 °FWarm.N/A55%29.82 "Hg10 mi
7:50 pm86 °FWarm.N/A52%29.81 "Hg10 mi
7:30 pm88 °FWarm.N/A49%29.80 "Hg10 mi
7:10 pm90 °FHot.N/A46%29.79 "Hg10 mi
6:50 pm91 °FHot.N/A44%29.79 "Hg10 mi
6:10 pm93 °FExtremely hot.No wind34%29.78 "Hg10 mi
5:50 pm93 °FExtremely hot.No wind32%29.78 "Hg10 mi
5:30 pm93 °FExtremely hot.6 mph32%29.78 "Hg10 mi
5:10 pm93 °FExtremely hot.No wind32%29.77 "Hg10 mi
4:50 pm93 °FExtremely hot.N/A34%29.77 "Hg10 mi
4:10 pm93 °FExtremely hot.No wind34%29.78 "Hg10 mi
3:50 pm93 °FExtremely hot.N/A34%29.79 "Hg10 mi
3:10 pm93 °FExtremely hot.N/A34%29.80 "Hg10 mi
2:50 pm91 °FHot.N/A38%29.81 "Hg10 mi
2:10 pm91 °FHot.N/A38%29.82 "Hg10 mi
1:50 pm91 °FHot.N/A38%29.82 "Hg10 mi
1:10 pm90 °FHot.N/A41%29.83 "Hg10 mi
12:50 pm90 °FHot.N/A41%29.85 "Hg10 mi
12:30 pm90 °FHot.N/A41%29.85 "Hg10 mi
12:10 pm88 °FWarm.N/A46%29.86 "Hg10 mi
11:50 am86 °FWarm.N/A49%29.86 "Hg10 mi
11:10 am84 °FWarm.N/A58%29.87 "Hg10 mi
10:50 am84 °FWarm.N/A58%29.88 "Hg10 mi
10:30 am82 °FWarm.N/A66%29.87 "Hg10 mi
10:10 am82 °FWarm.N/A66%29.87 "Hg10 mi
9:50 am81 °FWarm.N/A74%29.87 "Hg10 mi
9:30 am79 °FWarm.7 mph74%29.86 "Hg10 mi
9:10 am77 °FWarm.N/A79%29.86 "Hg10 mi
8:50 am75 °FMild.N/A78%29.86 "Hg10 mi
8:30 am73 °FMild.N/A83%29.86 "HgN/A
8:10 am70 °FMild.No wind94%29.85 "Hg10 mi
7:50 am68 °FMild.No wind94%29.84 "Hg10 mi
7:10 am64 °FMild.No wind100%29.83 "Hg10 mi
6:50 am66 °FMild.No wind94%29.81 "Hg10 mi
6:30 am66 °FMild.No wind94%29.80 "Hg10 mi
6:10 am64 °FMild.No wind94%29.80 "Hg10 mi
Weather by CustomWeather, © 2017

See weather overviewHow to use our weather pages